Weather History for KPIB - July, 2013

Change the Weather History Date:

Tuesday, July 16, 2013

  Actual Average Record
Temperature  
Mean Temperature 78 °F -  
Max Temperature 87 °F 89 °F 105 °F (2000)
Min Temperature 69 °F 69 °F 62 °F (2008)
Cooling Degree Days 13    
Growing Degree Days 28 (Base 50)    
Moisture  
Dew Point 70 °F    
Average Humidity 80    
Maximum Humidity 94    
Minimum Humidity 58    
Precipitation  
Precipitation 0.08 in - - ()
Sea Level Pressure  
Sea Level Pressure 30.18 in    
Wind  
Wind Speed 6 mph (ENE)    
Max Wind Speed 16 mph    
Max Gust Speed 24 mph    
Visibility 10 miles    
Events Thunderstorm    
Averages and records for this station are not official NWS values.
T = Trace of Precipitation, MM = Missing Value Source: NWS Daily Summary

Daily Weather History Graph

Daily Weather History Graph

Search for Another Location

Airport or City:

Trip Planner

Search our weather history database for the weather conditions in past years. The results will help you decide how hot, cold, wet, or windy it might be!

Date:

Astronomy

Jul. 16, 2013 Rise Set
Actual Time 6:03 AM CDT 8:02 PM CDT
Civil Twilight 5:36 AM CDT 8:30 PM CDT
Nautical Twilight 5:03 AM CDT 9:03 PM CDT
Astronomical Twilight 4:27 AM CDT 9:38 PM CDT
Moon 1:52 PM CDT (7/16) 12:22 AM CDT (7/16)
Length of Visible Light 14h 53m
Length of Day
13h 58m
First Quarter, 56% of the Moon is Illuminated
Jul 16
First Quarter
Jul 22
Full
Jul 29
Last Quarter
Aug 6
New
Aug 14
First Quarter

Hourly Weather History & Observations

Time (CDT) Temp. Heat Index Dew Point Humidity Pressure Visibility Wind Dir Wind Speed Gust Speed Precip Events Conditions
12:15 AM 73.4 °F - 69.8 °F 88% 30.15 in 10.0 mi NNE 4.6 mph - N/A   Clear
12:35 AM 73.4 °F - 69.8 °F 88% 30.15 in 10.0 mi North 4.6 mph - N/A   Clear
12:55 AM 73.4 °F - 69.8 °F 88% 30.15 in 10.0 mi NNE 5.8 mph - N/A   Clear
1:15 AM 73.4 °F - 69.8 °F 88% 30.15 in 10.0 mi NNE 5.8 mph - N/A   Clear
1:35 AM 73.4 °F - 69.8 °F 88% 30.15 in 10.0 mi NNE 3.5 mph - N/A   Clear
1:55 AM 73.4 °F - 69.8 °F 88% 30.15 in 10.0 mi ENE 3.5 mph - N/A   Clear
2:15 AM 73.4 °F - 69.8 °F 88% 30.15 in 10.0 mi ENE 4.6 mph - N/A   Clear
2:35 AM 73.4 °F - 68.0 °F 83% 30.15 in 10.0 mi East 3.5 mph - N/A   Clear
2:55 AM 73.4 °F - 68.0 °F 83% 30.15 in 10.0 mi East 4.6 mph - N/A   Clear
3:15 AM 73.4 °F - 68.0 °F 83% 30.15 in 10.0 mi East 4.6 mph - N/A   Clear
3:35 AM 71.6 °F - 68.0 °F 88% 30.15 in 10.0 mi NE 3.5 mph - N/A   Clear
3:55 AM 71.6 °F - 66.2 °F 83% 30.14 in 10.0 mi East 4.6 mph - N/A   Clear
4:15 AM 71.6 °F - 66.2 °F 83% 30.14 in 10.0 mi ENE 3.5 mph - 0.01 in   Clear
4:35 AM 71.6 °F - 66.2 °F 83% 30.15 in 10.0 mi ENE 3.5 mph - 0.01 in   Clear
4:55 AM 71.6 °F - 66.2 °F 83% 30.14 in 10.0 mi NE 4.6 mph - 0.01 in   Clear
5:15 AM 71.6 °F - 66.2 °F 83% 30.14 in 10.0 mi NE 4.6 mph - N/A   Clear
5:35 AM 69.8 °F - 66.2 °F 88% 30.14 in 10.0 mi NNE 4.6 mph - N/A   Clear
5:55 AM 69.8 °F - 66.2 °F 88% 30.15 in 10.0 mi NNE 4.6 mph - N/A   Clear
6:15 AM 69.8 °F - 66.2 °F 88% 30.16 in 10.0 mi NE 5.8 mph - N/A   Scattered Clouds
6:35 AM 71.6 °F - 66.2 °F 83% 30.16 in 10.0 mi NE 3.5 mph - N/A   Mostly Cloudy
6:55 AM 71.6 °F - 66.2 °F 83% 30.17 in 10.0 mi NE 4.6 mph - N/A   Partly Cloudy
7:15 AM 71.6 °F - 68.0 °F 88% 30.18 in 10.0 mi NE 4.6 mph - N/A   Partly Cloudy
7:35 AM 71.6 °F - 68.0 °F 88% 30.19 in 10.0 mi ENE 5.8 mph - N/A   Mostly Cloudy
7:56 AM 71.6 °F - 69.8 °F 94% 30.19 in 10.0 mi ENE 8.1 mph - N/A   Overcast
8:15 AM 73.4 °F - 69.8 °F 88% 30.19 in 10.0 mi ENE 5.8 mph - N/A   Mostly Cloudy
8:35 AM 73.4 °F - 69.8 °F 88% 30.20 in 10.0 mi ENE 8.1 mph - N/A   Mostly Cloudy
8:55 AM 73.4 °F - 69.8 °F 88% 30.20 in 10.0 mi East 9.2 mph - N/A   Overcast
9:15 AM 77.0 °F - 71.6 °F 83% 30.20 in 10.0 mi ENE 8.1 mph - N/A   Overcast
9:35 AM 77.0 °F - 69.8 °F 78% 30.21 in 10.0 mi East 6.9 mph - N/A   Overcast
9:55 AM 77.0 °F - 69.8 °F 78% 30.21 in 10.0 mi ENE 5.8 mph - N/A   Overcast
10:16 AM 77.0 °F - 69.8 °F 78% 30.21 in 10.0 mi ENE 6.9 mph - N/A   Overcast
10:35 AM 78.8 °F - 71.6 °F 78% 30.21 in 10.0 mi East 6.9 mph - N/A   Overcast
10:55 AM 78.8 °F - 71.6 °F 78% 30.21 in 10.0 mi ENE 8.1 mph - N/A   Mostly Cloudy
11:15 AM 80.6 °F 84.6 °F 71.6 °F 74% 30.21 in 10.0 mi ENE 9.2 mph - N/A   Overcast
11:35 AM 80.6 °F 84.6 °F 71.6 °F 74% 30.21 in 8.0 mi ENE 10.4 mph - N/A   Overcast
11:55 AM 82.4 °F 87.2 °F 71.6 °F 70% 30.21 in 10.0 mi East 10.4 mph - N/A   Overcast
12:15 PM 80.6 °F 84.6 °F 71.6 °F 74% 30.21 in 10.0 mi East 8.1 mph - N/A   Overcast
12:35 PM 82.4 °F 87.2 °F 71.6 °F 70% 30.21 in 10.0 mi ENE 12.7 mph 19.6 mph N/A   Overcast
12:55 PM 82.4 °F 86.3 °F 69.8 °F 66% 30.20 in 10.0 mi ENE 10.4 mph 16.1 mph N/A   Overcast
1:16 PM 84.2 °F 89.6 °F 71.6 °F 66% 30.19 in 10.0 mi East 10.4 mph - N/A   Overcast
1:35 PM 84.2 °F 89.6 °F 71.6 °F 66% 30.19 in 10.0 mi East 8.1 mph - N/A   Mostly Cloudy
1:55 PM 84.2 °F 89.6 °F 71.6 °F 66% 30.19 in 10.0 mi East 10.4 mph - N/A   Mostly Cloudy
2:15 PM 84.2 °F 89.6 °F 71.6 °F 66% 30.18 in 10.0 mi East 10.4 mph - N/A   Overcast
2:35 PM 84.2 °F 89.6 °F 71.6 °F 66% 30.19 in 10.0 mi ENE 6.9 mph - N/A   Overcast
2:55 PM 84.2 °F 89.6 °F 71.6 °F 66% 30.17 in 10.0 mi East 3.5 mph - N/A   Mostly Cloudy
3:15 PM 86.0 °F 91.8 °F 71.6 °F 62% 30.17 in 10.0 mi East 6.9 mph - N/A   Mostly Cloudy
3:36 PM 86.0 °F 91.8 °F 71.6 °F 62% 30.17 in 10.0 mi ENE 8.1 mph - N/A   Mostly Cloudy
3:55 PM 86.0 °F 91.8 °F 71.6 °F 62% 30.16 in 10.0 mi ENE 8.1 mph 16.1 mph N/A   Scattered Clouds
4:16 PM 87.8 °F 93.8 °F 71.6 °F 58% 30.16 in 10.0 mi NE 10.4 mph - N/A   Partly Cloudy
4:35 PM 87.8 °F 93.8 °F 71.6 °F 58% 30.16 in 10.0 mi East 11.5 mph - N/A   Partly Cloudy
4:55 PM 87.8 °F 93.8 °F 71.6 °F 58% 30.16 in 10.0 mi ENE 9.2 mph 16.1 mph N/A   Scattered Clouds
5:15 PM 87.8 °F 93.8 °F 71.6 °F 58% 30.15 in 10.0 mi ENE 6.9 mph - N/A   Partly Cloudy
5:36 PM 87.8 °F 93.8 °F 71.6 °F 58% 30.16 in 10.0 mi East 6.9 mph - N/A   Scattered Clouds
5:55 PM 87.8 °F 93.8 °F 71.6 °F 58% 30.16 in 10.0 mi East 8.1 mph - N/A   Partly Cloudy
6:15 PM 86.0 °F 91.8 °F 71.6 °F 62% 30.17 in 10.0 mi SE 12.7 mph 20.7 mph N/A Thunderstorm Mostly Cloudy
6:35 PM 78.8 °F - 69.8 °F 74% 30.16 in 5.0 mi SE 16.1 mph 24.2 mph 0.01 in   Overcast
6:55 PM 75.2 °F - 71.6 °F 89% 30.16 in 8.0 mi Calm Calm - 0.01 in   Scattered Clouds
7:15 PM 77.0 °F - 71.6 °F 83% 30.17 in 10.0 mi SE 4.6 mph - N/A   Mostly Cloudy
7:35 PM 75.2 °F - 71.6 °F 89% 30.18 in 10.0 mi SSE 5.8 mph - 0.04 in   Mostly Cloudy
7:55 PM 75.2 °F - 71.6 °F 89% 30.19 in 10.0 mi Calm Calm - 0.04 in   Mostly Cloudy
8:15 PM 75.2 °F - 71.6 °F 89% 30.19 in 10.0 mi Calm Calm - 0.02 in   Overcast
8:35 PM 75.2 °F - 71.6 °F 89% 30.20 in 10.0 mi Calm Calm - 0.02 in   Mostly Cloudy
8:55 PM 75.2 °F - 71.6 °F 89% 30.21 in 10.0 mi Calm Calm - 0.02 in   Mostly Cloudy
9:15 PM 73.4 °F - 71.6 °F 94% 30.22 in 10.0 mi NNE 3.5 mph - N/A   Partly Cloudy
9:35 PM 73.4 °F - 71.6 °F 94% 30.22 in 10.0 mi Calm Calm - N/A   Scattered Clouds
9:55 PM 73.4 °F - 71.6 °F 94% 30.22 in 10.0 mi NNE 3.5 mph - N/A   Scattered Clouds
10:15 PM 73.4 °F - 71.6 °F 94% 30.22 in 10.0 mi NNE 4.6 mph - N/A   Clear
10:35 PM 73.4 °F - 71.6 °F 94% 30.23 in 10.0 mi NE 5.8 mph - N/A   Scattered Clouds
10:55 PM 73.4 °F - 71.6 °F 94% 30.23 in 10.0 mi Calm Calm - N/A   Partly Cloudy
11:15 PM 73.4 °F - 69.8 °F 88% 30.23 in 10.0 mi Calm Calm - N/A   Clear
11:35 PM 73.4 °F - 69.8 °F 88% 30.23 in 10.0 mi Calm Calm - N/A   Clear
11:55 PM 73.4 °F - 69.8 °F 88% 30.23 in 10.0 mi Calm Calm - N/A   Clear